Hourly Weather Ruszkowo

Today, 22 April, Thursday

Time Temperature Precipitation Wind Pressure Humidity
00:00 +4°C° 0.2 mm 4 mps 741 mmHg 87%
01:00 +3°C° 0.2 mm 4 mps 741 mmHg 89%
02:00 +3°C° 0.1 mm 4 mps 741 mmHg 88%
03:00 +3°C° 0.1 mm 4 mps 741 mmHg 87%
04:00 +3°C° 0.1 mm 4 mps 741 mmHg 87%
05:00 +2°C° 0 mm 5 mps 741 mmHg 83%
06:00 +2°C° 0 mm 6 mps 741 mmHg 80%
07:00 +2°C° 0 mm 6 mps 742 mmHg 76%
08:00 +2°C° 0 mm 7 mps 742 mmHg 72%
09:00 +3°C° 0 mm 7 mps 742 mmHg 68%
10:00 +4°C° 0 mm 7 mps 742 mmHg 64%
11:00 +5°C° 0.2 mm 8 mps 742 mmHg 60%
12:00 +5°C° 0.2 mm 8 mps 742 mmHg 56%
13:00 +6°C° 0.2 mm 8 mps 742 mmHg 52%
14:00 +6°C° 0.2 mm 8 mps 742 mmHg 52%
15:00 +6°C° 0.2 mm 7 mps 742 mmHg 53%
16:00 +5°C° 0.2 mm 7 mps 742 mmHg 53%
17:00 +4°C° 0 mm 6 mps 743 mmHg 57%
18:00 +3°C° 0 mm 6 mps 743 mmHg 60%
19:00 +2°C° 0 mm 5 mps 743 mmHg 63%
20:00 +1°C° 0 mm 5 mps 744 mmHg 64%
21:00 +1°C° 0 mm 5 mps 744 mmHg 65%
22:00 +1°C° 0 mm 5 mps 744 mmHg 65%
23:00 +1°C° 0 mm 5 mps 744 mmHg 69%

Tomorrow, 23 April, Friday

Time Temperature Precipitation Wind Pressure Humidity
00:00 0°C° 0 mm 5 mps 744 mmHg 72%
01:00 0°C° 0 mm 5 mps 744 mmHg 75%
02:00 -1°C° 0 mm 5 mps 745 mmHg 78%
03:00 -1°C° 0 mm 4 mps 745 mmHg 81%
04:00 -1°C° 0 mm 4 mps 745 mmHg 84%
05:00 0°C° 0 mm 4 mps 745 mmHg 78%
06:00 +1°C° 0 mm 5 mps 745 mmHg 72%
07:00 +2°C° 0 mm 6 mps 746 mmHg 67%
08:00 +3°C° 0.1 mm 6 mps 746 mmHg 61%
09:00 +4°C° 0.1 mm 6 mps 746 mmHg 55%
10:00 +5°C° 0.1 mm 6 mps 746 mmHg 49%
11:00 +5°C° 0.4 mm 6 mps 746 mmHg 53%
12:00 +5°C° 0.4 mm 6 mps 746 mmHg 58%
13:00 +4°C° 0.4 mm 7 mps 746 mmHg 62%
14:00 +4°C° 0.8 mm 6 mps 746 mmHg 62%
15:00 +3°C° 0.8 mm 6 mps 746 mmHg 61%
16:00 +3°C° 0.8 mm 6 mps 747 mmHg 61%
17:00 +2°C° 0 mm 5 mps 747 mmHg 64%
18:00 +1°C° 0 mm 4 mps 747 mmHg 66%
19:00 0°C° 0 mm 4 mps 748 mmHg 69%
20:00 0°C° 0 mm 3 mps 748 mmHg 71%
21:00 -1°C° 0 mm 3 mps 748 mmHg 73%
22:00 -1°C° 0 mm 3 mps 748 mmHg 75%
23:00 -1°C° 0 mm 3 mps 748 mmHg 77%

Day after tomorrow, 24 April, Saturday

Time Temperature Precipitation Wind Pressure Humidity
00:00 -2°C° 0 mm 3 mps 748 mmHg 79%
01:00 -2°C° 0 mm 3 mps 748 mmHg 80%
02:00 -2°C° 0 mm 3 mps 748 mmHg 82%
03:00 -2°C° 0 mm 3 mps 748 mmHg 84%
04:00 -2°C° 0 mm 3 mps 748 mmHg 85%
05:00 -1°C° 0 mm 3 mps 748 mmHg 78%
06:00 0°C° 0 mm 4 mps 749 mmHg 71%
07:00 +1°C° 0 mm 4 mps 749 mmHg 63%
08:00 +4°C° 0 mm 4 mps 749 mmHg 55%
09:00 +5°C° 0 mm 5 mps 749 mmHg 47%
10:00 +7°C° 0 mm 5 mps 749 mmHg 39%
11:00 +7°C° 0 mm 5 mps 748 mmHg 39%
12:00 +7°C° 0 mm 5 mps 748 mmHg 39%
13:00 +7°C° 0 mm 5 mps 748 mmHg 39%
14:00 +6°C° 0.1 mm 5 mps 748 mmHg 47%
15:00 +5°C° 0.1 mm 5 mps 748 mmHg 55%
16:00 +3°C° 0.1 mm 5 mps 748 mmHg 64%
17:00 +3°C° 0 mm 4 mps 749 mmHg 65%
18:00 +1°C° 0 mm 4 mps 749 mmHg 67%
19:00 0°C° 0 mm 3 mps 749 mmHg 68%
20:00 -1°C° 0 mm 2 mps 749 mmHg 70%
21:00 -2°C° 0 mm 2 mps 749 mmHg 73%
22:00 -3°C° 0 mm 2 mps 749 mmHg 75%
23:00 -3°C° 0 mm 2 mps 749 mmHg 76%

25 April, Sunday

Time Temperature Precipitation Wind Pressure Humidity
00:00 -3°C° 0 mm 2 mps 749 mmHg 77%
01:00 -3°C° 0 mm 2 mps 749 mmHg 78%
02:00 -3°C° 0 mm 2 mps 749 mmHg 78%
03:00 -3°C° 0 mm 2 mps 750 mmHg 79%
04:00 -3°C° 0 mm 2 mps 750 mmHg 79%
05:00 -1°C° 0 mm 3 mps 750 mmHg 71%
06:00 0°C° 0 mm 3 mps 749 mmHg 64%
07:00 +2°C° 0 mm 3 mps 749 mmHg 57%
08:00 +3°C° 0.1 mm 4 mps 749 mmHg 53%
09:00 +3°C° 0.1 mm 5 mps 749 mmHg 50%
10:00 +5°C° 0.1 mm 5 mps 749 mmHg 46%
11:00 +4°C° 0.2 mm 6 mps 749 mmHg 48%
12:00 +4°C° 0.2 mm 6 mps 749 mmHg 49%
13:00 +4°C° 0.2 mm 7 mps 748 mmHg 51%
14:00 +4°C° 0.1 mm 7 mps 749 mmHg 51%
15:00 +4°C° 0.1 mm 7 mps 749 mmHg 50%
16:00 +3°C° 0.1 mm 7 mps 749 mmHg 50%
17:00 +2°C° 0 mm 6 mps 749 mmHg 55%
18:00 0°C° 0 mm 5 mps 749 mmHg 60%
19:00 0°C° 0 mm 3 mps 749 mmHg 66%
20:00 -1°C° 0 mm 3 mps 749 mmHg 69%
21:00 -2°C° 0 mm 2 mps 749 mmHg 73%
22:00 -3°C° 0 mm 2 mps 749 mmHg 76%
23:00 -3°C° 0 mm 2 mps 749 mmHg 75%

26 April, Monday

Time Temperature Precipitation Wind Pressure Humidity
00:00 -3°C° 0 mm 2 mps 749 mmHg 74%
01:00 -3°C° 0 mm 2 mps 748 mmHg 73%
02:00 -3°C° 0 mm 2 mps 748 mmHg 74%
03:00 -3°C° 0 mm 2 mps 748 mmHg 74%
04:00 -2°C° 0 mm 2 mps 748 mmHg 75%
05:00 -1°C° 0 mm 3 mps 748 mmHg 73%
06:00 0°C° 0 mm 3 mps 748 mmHg 70%
07:00 +1°C° 0 mm 4 mps 747 mmHg 67%
08:00 +3°C° 0 mm 4 mps 747 mmHg 57%
09:00 +5°C° 0 mm 4 mps 747 mmHg 47%
10:00 +7°C° 0 mm 5 mps 747 mmHg 38%
11:00 +7°C° 0 mm 5 mps 747 mmHg 39%
12:00 +7°C° 0 mm 5 mps 747 mmHg 40%
13:00 +7°C° 0 mm 5 mps 747 mmHg 42%
14:00 +8°C° 0 mm 5 mps 747 mmHg 43%
15:00 +8°C° 0 mm 4 mps 747 mmHg 44%
16:00 +8°C° 0 mm 4 mps 746 mmHg 45%
17:00 +7°C° 0 mm 3 mps 746 mmHg 53%
18:00 +4°C° 0 mm 3 mps 746 mmHg 61%
19:00 +3°C° 0 mm 2 mps 746 mmHg 69%
20:00 +2°C° 0 mm 2 mps 746 mmHg 70%
21:00 +2°C° 0 mm 1 mps 746 mmHg 72%
22:00 +1°C° 0 mm 1 mps 746 mmHg 73%
23:00 +1°C° 0 mm 1 mps 746 mmHg 72%

27 April, Tuesday

Time Temperature Precipitation Wind Pressure Humidity
00:00 +1°C° 0 mm 1 mps 746 mmHg 71%
01:00 +1°C° 0 mm 1 mps 746 mmHg 70%
02:00 +1°C° 0 mm 1 mps 745 mmHg 71%
03:00 -1°C° 0 mm 2 mps 745 mmHg 71%
04:00 -1°C° 0 mm 2 mps 745 mmHg 71%
05:00 +1°C° 0 mm 2 mps 744 mmHg 68%
06:00 +3°C° 0 mm 2 mps 744 mmHg 65%
07:00 +4°C° 0 mm 2 mps 744 mmHg 62%
08:00 +4°C° 0 mm 3 mps 744 mmHg 58%
09:00 +7°C° 0 mm 3 mps 743 mmHg 54%
10:00 +8°C° 0 mm 3 mps 743 mmHg 50%
11:00 +8°C° 0 mm 4 mps 742 mmHg 49%
12:00 +10°C° 0 mm 4 mps 742 mmHg 47%
13:00 +10°C° 0 mm 4 mps 741 mmHg 46%
14:00 +10°C° 0 mm 4 mps 740 mmHg 48%
15:00 +10°C° 0 mm 4 mps 740 mmHg 51%
16:00 +10°C° 0 mm 4 mps 739 mmHg 54%
17:00 +8°C° 0 mm 5 mps 739 mmHg 57%
18:00 +7°C° 0 mm 5 mps 738 mmHg 60%
19:00 +6°C° 0 mm 5 mps 738 mmHg 63%
20:00 +6°C° 0 mm 5 mps 737 mmHg 64%
21:00 +5°C° 0 mm 5 mps 737 mmHg 66%
22:00 +5°C° 0 mm 5 mps 736 mmHg 68%
23:00 +5°C° 0.7 mm 5 mps 736 mmHg 74%
Show more